Regional Weather Roundup
Issued by NWS

Home | Current Version | Previous Version | Text Only | Print | Product List | Glossary On
Versions: 1 2 3 4 5 6 7 8 9 10 11 12 13 14 15 16 17 18 19 20 21 22 23 24 25 26 27 28 29 30 31 32 33 34 35 36 37 38 39 40 41 42 43 44 45 46 47 48 49 50
000
ASUS43 KLMK 210610
RWRKY
KENTUCKY REGIONAL WEATHER ROUNDUP
NATIONAL WEATHER SERVICE LOUISVILLE KY
200 AM EDT SAT APR 21 2018

NOTE "FAIR" INDICATES FEW OR NO CLOUDS BELOW 12,000 FEET
WITH NO SIGNIFICANT WEATHER AND/OR OBSTRUCTIONS TO VISIBILITY.

KYZ001>023-026-027-061>063-070>075-210700-
WESTERN AND SOUTH CENTRAL KENTUCKY

CITY           SKY/WX    TMP DP  RH WIND       PRES   REMARKS
PADUCAH        FAIR      44  35  70 CALM      30.32S
HENDERSON      FAIR      47  34  60 NE3       30.36S
OWENSBORO      FAIR      49  29  46 NE6       30.37R
HOPKINSVILLE   FAIR      50  29  44 E7        30.33R
BOWLING GREEN  FAIR      47  31  53 CALM      30.35S
GLASGOW        FAIR      46  30  54 NE7       30.34F
$$

KYZ024-025-028>034-038-045-046-053-210700-
NORTH CENTRAL KENTUCKY

CITY           SKY/WX    TMP DP  RH WIND       PRES   REMARKS
LOUISVILLE/SDF FAIR      49  26  41 E6        30.38S
LOUISVILLE/LOU FAIR      47  29  49 E8        30.39S
FORT KNOX      FAIR      49  26  41 NE8       30.38R
$$

KYZ035>037-039>044-047>052-055>060-089>105-210700-
NORTHEAST KENTUCKY

CITY           SKY/WX    TMP DP  RH WIND       PRES   REMARKS
LEXINGTON      FAIR      45  26  47 E9        30.38F
COVINGTON      FAIR      47  27  45 E8        30.40S
FRANKFORT      FAIR      48  25  40 NE6       30.38S
$$

KYZ054-064>069-076>088-106>120-210700-
SOUTHEAST KENTUCKY

CITY           SKY/WX    TMP DP  RH WIND       PRES   REMARKS
JACKSON        FAIR      46  22  38 NE5       30.38S
LONDON         FAIR      44  26  49 N3        30.36S
SOMERSET       FAIR      43  28  56 E3        30.36F
MIDDLESBORO    FAIR      38  32  81 CALM      30.37R
MONTICELLO     FAIR      41  30  65 VRB3      30.36F
$$





USA.gov is the U.S. government's official web portal to all federal, state and local government web resources and services.